User: anonymous   Login
Location: Ocean City
(38.3360°N, 75.0850°W)
Time: 15:10:27
(UTC-05:00)
Language:

UWE-3 - Orbit

View from above orbital plane
View from above orbital plane
View from above satellite
View from above satellite

Ground track
Ground track

The orbit data is extracted from the following two-line orbital elements,

1 39446U 13066AG  19321.49677082  .00000195  00000-0  32600-4 0  9991
2 39446  97.5864 318.2090 0068562 285.0387  74.3245 14.78451600321692
Epoch (UTC): 17 November 2019 11:55:20
Eccentricity: 0.0068562
inclination: 97.5864°
perigee height: 586 km
apogee height: 682 km
right ascension of ascending node: 318.2090°
argument of perigee: 285.0387°
revolutions per day: 14.78451600
mean anomaly at epoch: 74.3245°
orbit number at epoch: 32169

The dashed part of the orbit path shows where the satellite is in the earth's shadow,  

DLR